TimePST,TemperatureF,Dew PointF,Humidity,Sea Level PressureIn,VisibilityMPH,Wind Direction,Wind SpeedMPH,Gust SpeedMPH,PrecipitationIn,Events,Conditions,WindDirDegrees,DateUTC
12:56 AM,52.0,48.0,86,30.08,8.0,Calm,Calm,-,N/A,,Mostly Cloudy,0,2012-11-27 08:56:00
1:56 AM,48.9,46.0,90,30.08,9.0,SSW,4.6,-,N/A,,Mostly Cloudy,200,2012-11-27 09:56:00
2:56 AM,50.0,46.0,86,30.09,9.0,Calm,Calm,-,N/A,,Overcast,0,2012-11-27 10:56:00
3:56 AM,48.2,46.4,93,30.09,6.0,WSW,3.5,-,N/A,,Mostly Cloudy,240,2012-11-27 11:56:00
4:56 AM,50.0,46.9,89,30.09,5.0,Calm,Calm,-,N/A,,Mostly Cloudy,0,2012-11-27 12:56:00
5:39 AM,51.8,48.2,88,30.09,6.0,Calm,Calm,-,N/A,,Mostly Cloudy,0,2012-11-27 13:39:00
5:56 AM,52.0,48.0,86,30.10,6.0,SSE,3.5,-,N/A,,Mostly Cloudy,150,2012-11-27 13:56:00
6:56 AM,53.1,48.9,86,30.10,5.0,ESE,8.1,-,N/A,,Overcast,120,2012-11-27 14:56:00
7:56 AM,53.1,48.0,83,30.10,5.0,South,3.5,-,N/A,,Haze,170,2012-11-27 15:56:00
8:46 AM,53.6,48.2,82,30.11,9.0,ESE,5.8,-,N/A,,Overcast,110,2012-11-27 16:46:00
8:56 AM,53.6,48.2,82,30.11,9.0,East,5.8,-,N/A,,Overcast,100,2012-11-27 16:56:00
9:56 AM,55.0,48.9,80,30.12,9.0,ESE,3.5,-,N/A,,Mostly Cloudy,120,2012-11-27 17:56:00
10:56 AM,55.9,48.9,77,30.11,9.0,ENE,5.8,-,N/A,,Mostly Cloudy,70,2012-11-27 18:56:00
11:56 AM,57.9,50.0,75,30.09,9.0,NE,4.6,-,N/A,,Mostly Cloudy,40,2012-11-27 19:56:00
12:56 PM,60.8,50.0,68,30.06,9.0,East,3.5,-,N/A,,Mostly Cloudy,80,2012-11-27 20:56:00
1:56 PM,57.9,51.1,78,30.04,9.0,NE,6.9,-,N/A,,Mostly Cloudy,50,2012-11-27 21:56:00
2:56 PM,59.0,50.0,72,30.02,9.0,East,4.6,-,N/A,,Mostly Cloudy,80,2012-11-27 22:56:00
3:56 PM,61.0,46.0,58,30.02,10.0,South,8.1,-,N/A,,Mostly Cloudy,180,2012-11-27 23:56:00
4:56 PM,60.1,46.0,60,30.01,10.0,South,3.5,-,N/A,,Mostly Cloudy,170,2012-11-28 00:56:00
5:56 PM,59.0,46.9,64,30.02,10.0,Calm,Calm,-,N/A,,Mostly Cloudy,0,2012-11-28 01:56:00
6:56 PM,57.9,46.9,67,30.02,10.0,SSE,4.6,-,N/A,,Mostly Cloudy,150,2012-11-28 02:56:00
7:56 PM,59.0,46.9,64,30.02,10.0,ESE,5.8,-,N/A,,Scattered Clouds,120,2012-11-28 03:56:00
8:56 PM,57.9,46.9,67,30.01,10.0,SE,8.1,-,N/A,,Mostly Cloudy,140,2012-11-28 04:56:00
9:56 PM,57.9,46.9,67,30.01,10.0,ESE,8.1,-,N/A,,Mostly Cloudy,120,2012-11-28 05:56:00
10:56 PM,59.0,48.9,69,29.99,10.0,East,12.7,-,N/A,,Mostly Cloudy,100,2012-11-28 06:56:00
11:56 PM,57.9,48.9,72,29.99,10.0,East,9.2,-,N/A,,Scattered Clouds,100,2012-11-28 07:56:00